Lid_Strength_Index
-1 -1 -1 2 9 8 12 11 7 8 8 5 5 6 7 6 8 10 1 -0 -0 -0 -0 -1 -1 -1 -1 -1 -1 -1 -1 -1 -1 -1 -1 -1 -1 -1 -1 -1 -1 -1 -1 -1 -1 -1 -1 -1 -1
-1 0 1 4 10 13 12 9 9 7 6 5 5 5 6 8 4 3 2 -0 -1 -1 -1 -1 -1 -1 -1 -1 -1 -1 -1 -1 -1 -1 -1 -1 -1 -1 -1 -1 -1 -1 -1 -1 -1 -1 -1 -1 -1
-0 0 5 7 9 12 12 8 8 7 5 5 6 4 5 6 3 2 0 -0 -1 -1 -1 -1 -1 -1 -1 -1 -1 -1 -1 -1 -1 -1 -1 -1 -1 -1 -1 -1 -1 -1 -1 -1 -1 -1 -1 -1 -1
1 3 4 10 11 10 9 8 7 7 5 5 5 7 4 2 3 1 -0 -1 -1 -1 -1 -1 -1 -1 -1 -1 -1 -1 -1 -1 -1 -1 -1 -1 -1 -1 -1 -1 -1 -1 -1 -1 -1 -1 -1 -1 -1
1 4 8 11 12 9 8 7 7 8 6 6 5 7 6 2 1 0 -0 -0 -0 -1 -1 -1 -1 -1 -1 -1 -1 -1 -1 -1 -1 -1 -1 -1 -1 -1 -1 -1 -1 -1 -1 -1 -1 -1 -1 -1 -1
5 5 10 12 11 9 8 6 7 7 6 6 6 6 5 2 1 1 -0 -0 -1 -0 -1 -1 -1 -1 -1 -1 -1 -1 -1 -1 -1 -1 -1 -2 -1 -1 -2 -1 -1 -1 -1 -1 -1 -1 -1 -1 -1
6 8 10 11 11 10 8 6 7 7 6 6 4 7 5 3 1 0 -0 -0 -1 -1 -1 -1 -1 -1 -1 -1 -1 -1 -1 -1 -1 -1 -1 -2 -1 -1 -1 -1 -1 -1 -1 -1 -1 -1 -1 -1 -1
4 6 10 10 11 11 7 6 6 6 6 3 3 7 7 3 1 0 0 -0 -0 -0 -1 -1 -1 -2 -2 -2 -1 -1 -1 -1 -1 -1 -1 -1 -1 -2 -1 -1 -1 -1 -1 -1 -1 -1 -1 -1 -1
3 9 10 10 10 9 6 8 6 4 5 4 4 4 3 1 1 1 1 1 1 0 -0 -1 -1 -1 -2 -2 -2 -1 -1 -1 -1 -1 -1 -2 -2 -2 -2 -1 -1 -1 -1 -1 -1 -1 -1 -1 -1
6 8 10 7 7 8 6 6 7 6 6 6 5 3 2 2 2 2 2 2 2 1 0 -1 -1 -1 -1 -2 -2 -2 -2 -2 -2 -2 -1 -1 -1 -2 -1 -1 -1 -1 -1 -1 -1 -1 -1 -2 -2
6 9 7 7 6 6 6 6 6 6 7 5 5 4 3 2 2 2 2 2 2 1 0 -0 -1 -1 -1 -2 -2 -1 -1 -1 -1 -1 -1 -2 -1 -2 -1 -2 -1 -1 -1 -1 -1 -1 -2 -1 -2
8 7 6 6 6 6 7 5 6 6 5 3 3 3 3 3 3 2 2 2 1 1 1 0 -0 -1 -1 -2 -2 -1 -1 -1 -1 -1 -1 -1 -1 -1 -2 -1 -2 -2 -2 -2 -1 -2 -2 -2 -2
7 7 6 6 6 5 6 7 7 6 4 3 3 3 3 3 3 2 1 1 1 1 1 0 -0 -1 -1 -1 -1 -1 -1 -1 -1 -1 -1 -1 -1 -0 -1 -2 -2 -2 -2 -2 -1 -2 -2 -1 -1
6 6 7 6 6 6 7 7 6 6 4 4 3 3 3 3 2 2 2 2 1 1 1 -0 -0 -1 -1 -0 -1 -1 -1 -1 -1 -1 -1 -1 -1 -1 -1 -1 -1 -2 -2 -1 -1 -2 -1 -2 -2
6 8 7 7 7 7 6 9 9 6 4 5 4 3 3 3 2 2 2 1 1 1 0 0 -0 -1 -1 -1 0 -1 -1 -1 -1 -1 -2 -2 -1 -1 -1 -1 -2 -2 -1 -1 -1 -1 -2 -1 -1
7 8 10 8 7 7 7 12 7 5 6 6 5 4 3 3 2 2 1 1 0 0 0 -0 -0 -0 -1 -1 -1 -0 -2 -1 -1 -1 -1 -1 -2 -2 -1 -1 -1 -2 -2 -2 -1 -1 -1 -1 -1
8 10 10 10 7 7 8 10 7 6 6 6 6 4 4 3 3 2 1 1 0 0 0 0 -0 -0 -1 -1 -1 -1 -1 -1 -1 -1 -1 -1 -1 -2 -1 -2 -1 -2 -2 -2 -2 -1 -1 -0 -1
10 9 9 10 8 8 9 9 7 6 6 6 6 4 4 4 3 2 1 1 0 0 -0 -0 -0 -1 -1 -1 -0 -0 -1 -1 -1 -1 -1 -2 -1 -1 -1 -2 -2 -2 -2 -1 -1 -0 -1 -0 -0
7 8 9 8 7 9 9 9 7 6 6 6 5 5 4 4 2 2 1 1 1 0 0 0 0 -0 -0 0 1 0 1 0 -0 -1 -2 -2 -1 -1 -1 -2 -1 -2 -1 -0 -1 -1 -0 -1 -1
7 8 8 8 8 8 9 9 7 6 6 6 5 5 4 4 3 2 2 1 1 1 0 0 0 -0 -0 -0 -1 -1 -0 -0 -1 -1 -1 -2 -2 -2 -1 -2 -1 -1 -1 -1 -1 -0 0 -1 -1
7 8 8 8 8 8 9 10 8 6 6 5 5 4 4 4 4 3 2 2 1 1 1 0 0 -0 -0 -1 -1 -0 -1 -1 -0 -0 -0 -1 -1 -1 -1 -2 -2 -1 -1 -1 -1 -1 0 1 -0
8 6 8 8 10 11 8 13 9 7 7 6 5 5 5 4 3 3 3 2 2 1 0 0 -0 -0 -0 -1 -0 -0 1 1 0 -0 -1 -1 -1 -1 -1 -1 -2 -2 -2 -1 -1 -1 -0 0 1
8 6 7 8 9 10 10 11 9 8 8 7 6 5 4 4 3 3 3 2 1 1 1 0 -0 -0 -1 -0 -1 -0 0 0 -0 -0 -0 -1 -1 -1 -1 -1 -1 -1 -1 -1 -1 -1 -1 -1 0
6 7 8 8 9 12 10 10 9 8 7 7 5 5 4 4 3 3 2 2 1 1 1 0 0 0 -0 -0 -0 -0 -0 0 1 0 1 0 -0 -1 -1 -1 -1 -1 -1 -1 -1 -1 -1 -1 -1
6 7 11 12 13 11 9 10 9 6 6 6 6 5 4 3 3 3 3 3 2 2 1 1 1 1 0 0 -0 -0 -0 -0 -0 0 0 -0 0 0 -1 -1 -1 -1 -1 -1 -1 -1 -1 -1 -0
7 7 10 14 12 11 9 11 8 5 5 5 5 4 4 4 3 3 3 2 2 2 1 1 1 1 0 0 0 -0 -1 0 0 -0 -0 0 0 -0 -1 -1 -1 -1 -1 -1 -1 -0 -0 -1 -0
7 8 6 9 8 10 9 8 6 5 6 5 5 5 4 4 3 3 2 2 2 2 1 1 1 1 0 0 0 -0 -0 -0 -0 -1 -1 -0 -1 -1 -1 -1 -1 -1 -1 -1 -1 -0 -0 -1 -1
6 5 9 8 12 13 10 10 9 7 7 6 6 5 5 4 3 3 2 2 2 2 2 1 1 2 0 0 0 0 -0 -0 -0 -0 -0 -1 -1 -1 -1 -1 -1 -1 -1 -1 -1 -1 -1 -0 -0
7 8 7 7 9 11 12 11 6 6 6 6 5 5 4 4 4 3 2 2 1 1 2 1 1 1 1 0 0 -0 0 -0 -0 -0 -0 -0 -1 -1 -1 -1 -1 -1 -1 -1 -1 -1 -1 -0 -0
6 7 7 10 10 9 9 10 5 5 5 5 5 5 4 4 3 3 2 2 2 2 1 1 1 1 1 0 0 0 -0 -0 0 0 -0 -1 -0 -1 -1 -1 -1 -1 -1 -1 -0 -0 -0 -0 0